Time,TemperatureF,DewpointF,PressureIn,WindDirection,WindDirectionDegrees,WindSpeedMPH,WindSpeedGustMPH,Humidity,HourlyPrecipIn,Conditions,Clouds,dailyrainin,SoftwareType,DateUTC
2013-05-15 00:03:00,50.0,42.0,30.01,WSW,254,0.0,4.0,73,0.00,,,0.00,,2013-05-15 04:03:00,
2013-05-15 00:12:00,50.0,42.0,30.01,WSW,254,0.0,4.0,73,0.00,,,0.00,,2013-05-15 04:12:00,
2013-05-15 00:24:00,50.0,41.0,30.01,South,184,0.0,4.0,72,0.00,,,0.00,,2013-05-15 04:24:00,
2013-05-15 00:33:00,50.0,41.0,30.01,South,184,0.0,4.0,72,0.00,,,0.00,,2013-05-15 04:33:00,
2013-05-15 00:43:00,50.0,41.0,30.01,South,184,0.0,4.0,72,0.00,,,0.00,,2013-05-15 04:43:00,
2013-05-15 00:52:00,51.0,42.0,30.01,WSW,256,1.0,4.0,71,0.00,,,0.00,,2013-05-15 04:52:00,
2013-05-15 01:02:00,51.0,42.0,30.01,WSW,256,1.0,4.0,71,0.00,,,0.00,,2013-05-15 05:02:00,
2013-05-15 01:12:00,51.0,42.0,29.99,SW,229,0.0,3.0,72,0.00,,,0.00,,2013-05-15 05:12:00,
2013-05-15 01:22:00,51.0,42.0,29.99,SW,229,0.0,3.0,72,0.00,,,0.00,,2013-05-15 05:22:00,
2013-05-15 01:32:00,51.0,42.0,29.99,SW,229,0.0,3.0,72,0.00,,,0.00,,2013-05-15 05:32:00,
2013-05-15 01:42:00,51.0,42.0,29.99,SW,229,0.0,3.0,72,0.00,,,0.00,,2013-05-15 05:42:00,
2013-05-15 01:52:00,51.0,42.0,29.99,SW,230,0.0,3.0,72,0.00,,,0.00,,2013-05-15 05:52:00,
2013-05-15 02:02:00,51.0,42.0,29.99,SW,230,0.0,3.0,72,0.00,,,0.00,,2013-05-15 06:02:00,
2013-05-15 02:11:00,51.0,42.0,29.99,SW,230,0.0,3.0,72,0.00,,,0.00,,2013-05-15 06:11:00,
2013-05-15 02:21:00,51.0,43.0,29.98,SW,230,0.0,0.0,75,0.00,,,0.00,,2013-05-15 06:21:00,
2013-05-15 02:32:00,51.0,43.0,29.98,SW,230,0.0,0.0,75,0.00,,,0.00,,2013-05-15 06:32:00,
2013-05-15 02:42:00,50.0,43.0,29.97,NW,304,1.0,3.0,76,0.00,,,0.00,,2013-05-15 06:42:00,
2013-05-15 02:52:00,50.0,43.0,29.97,NW,304,1.0,3.0,76,0.00,,,0.00,,2013-05-15 06:52:00,
2013-05-15 03:01:00,50.0,43.0,29.97,NW,304,1.0,3.0,76,0.00,,,0.00,,2013-05-15 07:01:00,
2013-05-15 03:11:00,50.0,43.0,29.97,NW,304,1.0,3.0,76,0.00,,,0.00,,2013-05-15 07:11:00,
2013-05-15 03:22:00,50.0,43.0,29.96,ENE,74,1.0,4.0,77,0.00,,,0.00,,2013-05-15 07:22:00,
2013-05-15 03:32:00,50.0,43.0,29.96,ENE,74,1.0,4.0,77,0.00,,,0.00,,2013-05-15 07:32:00,
2013-05-15 03:42:00,50.0,43.0,29.96,ENE,74,1.0,4.0,77,0.00,,,0.00,,2013-05-15 07:42:00,
2013-05-15 03:52:00,49.0,42.0,29.96,ENE,73,0.0,3.0,78,0.00,,,0.00,,2013-05-15 07:52:00,
2013-05-15 04:02:00,49.0,42.0,29.96,ENE,73,0.0,3.0,78,0.00,,,0.00,,2013-05-15 08:02:00,
2013-05-15 04:12:00,49.0,42.0,29.96,ENE,71,0.0,3.0,78,0.00,,,0.00,,2013-05-15 08:12:00,
2013-05-15 04:21:00,49.0,42.0,29.96,ENE,71,0.0,3.0,78,0.00,,,0.00,,2013-05-15 08:21:00,
2013-05-15 04:32:00,49.0,42.0,29.96,ENE,71,0.0,3.0,78,0.00,,,0.00,,2013-05-15 08:32:00,
2013-05-15 04:42:00,48.0,42.0,29.95,ENE,71,0.0,0.0,81,0.00,,,0.00,,2013-05-15 08:42:00,
2013-05-15 04:53:00,48.0,42.0,29.95,ENE,71,0.0,0.0,81,0.00,,,0.00,,2013-05-15 08:53:00,
2013-05-15 05:01:00,48.0,42.0,29.95,ENE,71,0.0,0.0,81,0.00,,,0.00,,2013-05-15 09:01:00,
2013-05-15 05:12:00,48.0,43.0,29.95,ENE,69,0.0,3.0,82,0.00,,,0.00,,2013-05-15 09:12:00,
2013-05-15 05:21:00,48.0,43.0,29.95,ENE,69,0.0,3.0,82,0.00,,,0.00,,2013-05-15 09:21:00,
2013-05-15 05:33:00,48.0,43.0,29.95,ENE,69,0.0,3.0,82,0.00,,,0.00,,2013-05-15 09:33:00,
2013-05-15 05:42:00,48.0,43.0,29.95,ENE,69,0.0,3.0,82,0.00,,,0.00,,2013-05-15 09:42:00,
2013-05-15 05:53:00,48.0,43.0,29.93,NE,49,3.0,3.0,82,0.00,,,0.00,,2013-05-15 09:53:00,
2013-05-15 06:02:00,48.0,43.0,29.93,NE,49,3.0,3.0,82,0.00,,,0.00,,2013-05-15 10:02:00,
2013-05-15 06:13:00,48.0,42.0,29.92,NE,40,0.0,4.0,81,0.00,,,0.00,,2013-05-15 10:13:00,
2013-05-15 06:22:00,48.0,42.0,29.92,NE,40,0.0,4.0,81,0.00,,,0.00,,2013-05-15 10:22:00,
2013-05-15 06:32:00,48.0,42.0,29.92,NE,40,0.0,4.0,81,0.00,,,0.00,,2013-05-15 10:32:00,
2013-05-15 06:43:00,49.0,43.0,29.92,NE,45,2.0,4.0,80,0.00,,,0.00,,2013-05-15 10:43:00,
2013-05-15 06:52:00,49.0,43.0,29.92,NE,45,2.0,4.0,80,0.00,,,0.00,,2013-05-15 10:52:00,
2013-05-15 07:19:00,50.0,44.0,29.92,NE,41,0.0,5.0,79,0.00,,,0.00,,2013-05-15 11:19:00,
2013-05-15 07:27:00,50.0,44.0,29.92,NE,41,0.0,5.0,79,0.00,,,0.00,,2013-05-15 11:27:00,
2013-05-15 07:37:00,50.0,44.0,29.92,NE,41,0.0,5.0,79,0.00,,,0.00,,2013-05-15 11:37:00,
2013-05-15 07:50:00,51.0,44.0,29.91,NNE,22,2.0,4.0,77,0.00,,,0.00,,2013-05-15 11:50:00,
2013-05-15 08:00:00,51.0,44.0,29.91,NNE,22,2.0,4.0,77,0.00,,,0.00,,2013-05-15 12:00:00,
2013-05-15 08:08:00,51.0,44.0,29.91,NNE,22,2.0,4.0,77,0.00,,,0.00,,2013-05-15 12:08:00,
2013-05-15 08:16:00,54.0,46.0,29.90,NE,47,4.0,4.0,75,0.00,,,0.00,,2013-05-15 12:16:00,
2013-05-15 08:29:00,54.0,46.0,29.90,NE,47,4.0,4.0,75,0.00,,,0.00,,2013-05-15 12:29:00,
2013-05-15 08:36:00,54.0,46.0,29.90,NE,47,4.0,4.0,75,0.00,,,0.00,,2013-05-15 12:36:00,
2013-05-15 08:49:00,54.0,46.0,29.90,NE,47,4.0,4.0,75,0.00,,,0.00,,2013-05-15 12:49:00,
2013-05-15 08:57:00,56.0,46.0,29.87,South,174,1.0,10.0,70,0.00,,,0.00,,2013-05-15 12:57:00,
2013-05-15 09:09:00,56.0,46.0,29.87,South,174,1.0,10.0,70,0.00,,,0.00,,2013-05-15 13:09:00,
2013-05-15 09:19:00,57.0,48.0,29.91,South,184,5.0,10.0,71,0.00,,,0.00,,2013-05-15 13:19:00,
2013-05-15 09:26:00,57.0,48.0,29.91,South,184,5.0,10.0,71,0.00,,,0.00,,2013-05-15 13:26:00,
2013-05-15 09:36:00,57.0,48.0,29.91,South,184,5.0,10.0,71,0.00,,,0.00,,2013-05-15 13:36:00,
2013-05-15 09:48:00,57.0,48.0,29.91,South,184,5.0,10.0,71,0.00,,,0.00,,2013-05-15 13:48:00,
2013-05-15 09:59:00,61.0,50.0,29.89,South,188,5.0,10.0,66,0.00,,,0.00,,2013-05-15 13:59:00,
2013-05-15 10:06:00,61.0,50.0,29.89,South,188,5.0,10.0,66,0.00,,,0.00,,2013-05-15 14:06:00,
2013-05-15 10:14:00,61.0,50.0,29.86,SE,140,2.0,9.0,67,0.00,,,0.00,,2013-05-15 14:14:00,
2013-05-15 10:37:00,61.0,50.0,29.86,SE,140,2.0,9.0,67,0.00,,,0.00,,2013-05-15 14:37:00,
2013-05-15 10:52:00,61.0,50.0,29.86,SE,140,2.0,9.0,67,0.00,,,0.00,,2013-05-15 14:52:00,
2013-05-15 10:59:00,61.0,51.0,29.85,South,183,0.0,7.0,69,0.00,,,0.00,,2013-05-15 14:59:00,
2013-05-15 11:08:00,61.0,51.0,29.85,South,183,0.0,7.0,69,0.00,,,0.00,,2013-05-15 15:08:00,
2013-05-15 11:16:00,65.0,52.0,29.82,ESE,117,2.0,6.0,63,0.00,,,0.00,,2013-05-15 15:16:00,
2013-05-15 11:28:00,65.0,52.0,29.82,ESE,117,2.0,6.0,63,0.00,,,0.00,,2013-05-15 15:28:00,
2013-05-15 11:49:00,65.0,52.0,29.82,ESE,117,2.0,6.0,63,0.00,,,0.00,,2013-05-15 15:49:00,
2013-05-15 12:02:00,69.0,55.0,29.83,South,180,3.0,9.0,60,0.00,,,0.00,,2013-05-15 16:02:00,
2013-05-15 12:28:00,70.0,55.0,29.81,WSW,245,2.0,11.0,59,0.00,,,0.00,,2013-05-15 16:28:00,
2013-05-15 13:00:00,70.0,55.0,29.83,SW,235,5.0,12.0,60,0.00,,,0.00,,2013-05-15 17:00:00,
2013-05-15 13:27:00,70.0,56.0,29.79,SSW,202,4.0,10.0,61,0.00,,,0.00,,2013-05-15 17:27:00,
2013-05-15 13:37:00,70.0,56.0,29.79,SSW,202,4.0,10.0,61,0.00,,,0.00,,2013-05-15 17:37:00,
2013-05-15 13:49:00,70.0,56.0,29.79,SSW,202,4.0,10.0,61,0.00,,,0.00,,2013-05-15 17:49:00,
2013-05-15 13:59:00,75.0,59.0,29.76,SE,146,0.0,12.0,57,0.00,,,0.00,,2013-05-15 17:59:00,
2013-05-15 14:16:00,76.0,60.0,29.73,SSW,207,2.0,14.0,57,0.00,,,0.00,,2013-05-15 18:16:00,
2013-05-15 14:27:00,76.0,60.0,29.73,SSW,207,2.0,14.0,57,0.00,,,0.00,,2013-05-15 18:27:00,
2013-05-15 14:57:00,76.0,60.0,29.70,SW,232,7.0,15.0,58,0.00,,,0.00,,2013-05-15 18:57:00,
2013-05-15 15:30:00,78.0,61.0,29.69,South,182,7.0,13.0,55,0.00,,,0.00,,2013-05-15 19:30:00,
2013-05-15 15:57:00,77.0,62.0,29.69,SW,232,7.0,15.0,60,0.00,,,0.00,,2013-05-15 19:57:00,
2013-05-15 16:58:00,76.0,62.0,29.68,SW,232,5.0,13.0,61,0.00,,,0.00,,2013-05-15 20:58:00,
2013-05-15 17:28:00,76.0,62.0,29.67,SW,218,6.0,13.0,62,0.00,,,0.00,,2013-05-15 21:28:00,
2013-05-15 17:40:00,76.0,62.0,29.67,SW,218,6.0,13.0,62,0.00,,,0.00,,2013-05-15 21:40:00,
2013-05-15 17:53:00,76.0,62.0,29.67,SW,218,6.0,13.0,62,0.00,,,0.00,,2013-05-15 21:53:00,
2013-05-15 18:00:00,77.0,62.0,29.66,SW,225,7.0,12.0,59,0.00,,,0.00,,2013-05-15 22:00:00,
2013-05-15 18:19:00,77.0,62.0,29.66,SW,225,7.0,12.0,59,0.00,,,0.00,,2013-05-15 22:19:00,
2013-05-15 18:29:00,78.0,62.0,29.65,SW,229,5.0,13.0,57,0.00,,,0.00,,2013-05-15 22:29:00,
2013-05-15 18:40:00,78.0,62.0,29.65,SW,229,5.0,13.0,57,0.00,,,0.00,,2013-05-15 22:40:00,
2013-05-15 18:52:00,78.0,62.0,29.65,SW,229,5.0,13.0,57,0.00,,,0.00,,2013-05-15 22:52:00,
2013-05-15 18:59:00,78.0,62.0,29.64,WSW,243,5.0,12.0,57,0.00,,,0.00,,2013-05-15 22:59:00,
2013-05-15 19:07:00,78.0,62.0,29.64,WSW,243,5.0,12.0,57,0.00,,,0.00,,2013-05-15 23:07:00,
2013-05-15 19:17:00,78.0,62.0,29.64,WSW,243,5.0,12.0,57,0.00,,,0.00,,2013-05-15 23:17:00,
2013-05-15 19:28:00,78.0,62.0,29.63,SW,222,4.0,9.0,59,0.00,,,0.00,,2013-05-15 23:28:00,
2013-05-15 19:38:00,78.0,62.0,29.63,SW,222,4.0,9.0,59,0.00,,,0.00,,2013-05-15 23:38:00,
2013-05-15 19:50:00,78.0,62.0,29.63,SW,222,4.0,9.0,59,0.00,,,0.00,,2013-05-15 23:50:00,
2013-05-15 20:01:00,76.0,62.0,29.64,SSW,208,3.0,10.0,63,0.00,,,0.00,,2013-05-16 00:01:00,
2013-05-15 20:06:00,76.0,62.0,29.64,SSW,208,3.0,10.0,63,0.00,,,0.00,,2013-05-16 00:06:00,
2013-05-15 20:18:00,74.0,62.0,29.65,WSW,255,2.0,11.0,67,0.00,,,0.00,,2013-05-16 00:18:00,
2013-05-15 20:26:00,74.0,62.0,29.65,WSW,255,2.0,11.0,67,0.00,,,0.00,,2013-05-16 00:26:00,
2013-05-15 20:35:00,74.0,62.0,29.65,WSW,255,2.0,11.0,67,0.00,,,0.00,,2013-05-16 00:35:00,
2013-05-15 20:51:00,72.0,61.0,29.66,North,360,3.0,11.0,69,0.00,,,0.00,,2013-05-16 00:51:00,
2013-05-15 20:58:00,72.0,61.0,29.66,North,360,3.0,11.0,69,0.00,,,0.00,,2013-05-16 00:58:00,
2013-05-15 21:07:00,72.0,61.0,29.66,North,360,3.0,11.0,69,0.00,,,0.00,,2013-05-16 01:07:00,
2013-05-15 21:29:00,70.0,61.0,29.67,WNW,282,0.0,6.0,73,0.00,,,0.00,,2013-05-16 01:29:00,
2013-05-15 21:36:00,70.0,61.0,29.67,WNW,282,0.0,6.0,73,0.00,,,0.00,,2013-05-16 01:36:00,
2013-05-15 21:49:00,70.0,61.0,29.67,WNW,282,0.0,6.0,73,0.00,,,0.00,,2013-05-16 01:49:00,
2013-05-15 22:00:00,67.0,60.0,29.70,North,354,6.0,6.0,79,0.00,,,0.00,,2013-05-16 02:00:00,
2013-05-15 22:07:00,67.0,60.0,29.70,North,354,6.0,6.0,79,0.00,,,0.00,,2013-05-16 02:07:00,
2013-05-15 22:18:00,67.0,60.0,29.70,North,354,6.0,6.0,79,0.00,,,0.00,,2013-05-16 02:18:00,
2013-05-15 22:28:00,66.0,59.0,29.71,NW,313,0.0,8.0,79,0.00,,,0.00,,2013-05-16 02:28:00,
2013-05-15 22:37:00,66.0,59.0,29.71,NW,313,0.0,8.0,79,0.00,,,0.00,,2013-05-16 02:37:00,
2013-05-15 22:55:00,66.0,59.0,29.71,NW,313,0.0,8.0,79,0.00,,,0.00,,2013-05-16 02:55:00,
2013-05-15 23:07:00,63.0,58.0,29.71,NW,304,0.0,1.0,84,0.00,,,0.00,,2013-05-16 03:07:00,
2013-05-15 23:17:00,61.0,57.0,29.71,NW,317,0.0,0.0,87,0.00,,,0.00,,2013-05-16 03:17:00,
2013-05-15 23:25:00,61.0,57.0,29.71,NW,317,0.0,0.0,87,0.00,,,0.00,,2013-05-16 03:25:00,
2013-05-15 23:37:00,61.0,57.0,29.71,NW,317,0.0,0.0,87,0.00,,,0.00,,2013-05-16 03:37:00,
2013-05-15 23:47:00,61.0,57.0,29.71,NW,317,0.0,0.0,87,0.00,,,0.00,,2013-05-16 03:47:00,
2013-05-15 23:57:00,60.0,57.0,29.72,NW,318,0.0,1.0,90,0.00,,,0.00,,2013-05-16 03:57:00,